WATER LEVELS

Elbe

Guaranteed water level and forecast    Ústí nad Labem-Střekov

Guaranteed water level
185 cm
on 11.08.2022 more information
Forecast
180 cm
on 12.08.2022 07:00
Tendency
Slowly decreasing
on 12.08.2022 metodika tendence
Forecast
184 cm
on 13.08.2022 08:00
(Source data ČHMÚ a Povodí Labe)

Ústí nad Labem

Date and time (UTC) H (cm) Q (m³/s)
11. 8. 2022 09:20 202 195
11. 8. 2022 09:00 202 195
11. 8. 2022 08:00 198 187
11. 8. 2022 07:00 196 183
11. 8. 2022 06:00 186 165
11. 8. 2022 05:00 187 167
11. 8. 2022 04:00 187 167
11. 8. 2022 03:00 186 165
11. 8. 2022 02:00 185 163
11. 8. 2022 01:00 185 163
11. 8. 2022 00:00 186 165
10. 8. 2022 23:00 188 168
10. 8. 2022 22:00 188 168
10. 8. 2022 21:00 188 168

H - water level, Q - discharge
more information

Mělník

Date and time (UTC) H (cm) Q (m³/s)
11. 8. 2022 09:20 266 -
11. 8. 2022 09:00 267 -
11. 8. 2022 08:00 264 -
11. 8. 2022 07:00 262 -
11. 8. 2022 06:00 263 165
11. 8. 2022 05:00 265 -
11. 8. 2022 04:00 269 -
11. 8. 2022 03:00 264 -
11. 8. 2022 02:00 263 -
11. 8. 2022 01:00 266 -
11. 8. 2022 00:00 270 -
10. 8. 2022 23:00 266 -
10. 8. 2022 22:00 266 -
10. 8. 2022 21:00 267 -

H - water level, Q - discharge
more information

Kostelec nad Labem

Date and time (UTC) H (cm) Q (m³/s)
11. 8. 2022 09:20 404 -
11. 8. 2022 09:00 406 -
11. 8. 2022 08:00 404 13
11. 8. 2022 07:00 403 18
11. 8. 2022 06:00 402 13
11. 8. 2022 05:00 401 12
11. 8. 2022 04:00 399 12
11. 8. 2022 03:00 398 12
11. 8. 2022 02:00 401 19
11. 8. 2022 01:00 399 21
11. 8. 2022 00:00 397 11
10. 8. 2022 23:00 398 8
10. 8. 2022 22:00 400 14
10. 8. 2022 21:00 396 17

H - water level, Q - discharge
more information

Přelouč

Date and time (UTC) H (cm) Q (m³/s)
11. 8. 2022 09:20 33 16.1
11. 8. 2022 09:00 32 16
11. 8. 2022 08:00 32 16
11. 8. 2022 07:00 33 16
11. 8. 2022 06:00 37 18
11. 8. 2022 05:00 44 20
11. 8. 2022 04:00 41 19
11. 8. 2022 03:00 32 16
11. 8. 2022 02:00 33 16
11. 8. 2022 01:00 47 22
11. 8. 2022 00:00 49 23
10. 8. 2022 23:00 30 15
10. 8. 2022 22:00 32 16
10. 8. 2022 21:00 34 17

H - water level, Q - discharge
more information


Vltava

Praha-Chuchle

Date and time (UTC) H (cm) Q (m³/s)
11. 8. 2022 09:20 70 143
11. 8. 2022 09:00 70 143
11. 8. 2022 08:00 71 148
11. 8. 2022 07:00 71 148
11. 8. 2022 06:00 71 148
11. 8. 2022 05:00 71 148
11. 8. 2022 04:00 71 148
11. 8. 2022 03:00 71 148
11. 8. 2022 02:00 71 148
11. 8. 2022 01:00 71 148
11. 8. 2022 00:00 72 153
10. 8. 2022 23:00 71 148
10. 8. 2022 22:00 71 148
10. 8. 2022 21:00 72 153

H - water level, Q - discharge
more information

VD Orlík

Date and time (UTC) H (m n. m.) Q (m³/s)
11. 8. 2022 09:20 342.91 431.3
11. 8. 2022 09:00 342.95 391
11. 8. 2022 08:00 343.02 391
11. 8. 2022 07:00 343.10 415
11. 8. 2022 06:00 343.14 136
11. 8. 2022 05:00 343.16 0
11. 8. 2022 04:00 343.16 0
11. 8. 2022 03:00 343.15 0
11. 8. 2022 02:00 343.15 0
11. 8. 2022 01:00 343.15 0
11. 8. 2022 00:00 343.14 181
10. 8. 2022 23:00 343.18 357
10. 8. 2022 22:00 343.22 382
10. 8. 2022 21:00 343.28 373

H - water level, Q - outflow

VD Kořensko

Date and time (UTC) H (m n. m.) Q (m³/s)
11. 8. 2022 09:20 352.43 18.9
11. 8. 2022 09:00 352.43 19
11. 8. 2022 08:00 352.42 19
11. 8. 2022 07:00 352.42 19
11. 8. 2022 06:00 352.43 19
11. 8. 2022 05:00 352.43 19
11. 8. 2022 04:00 352.44 19
11. 8. 2022 03:00 352.45 19
11. 8. 2022 02:00 352.45 19
11. 8. 2022 01:00 352.46 19
11. 8. 2022 00:00 352.47 19
10. 8. 2022 23:00 352.48 26
10. 8. 2022 22:00 352.53 70
10. 8. 2022 21:00 352.58 58

H - water level, Q - outflow

České Budějovice

Date and time (UTC) H (cm) Q (m³/s)
11. 8. 2022 09:20 96 15.4
11. 8. 2022 09:00 96 15
11. 8. 2022 08:00 97 15
11. 8. 2022 07:00 99 14
11. 8. 2022 06:00 99 15
11. 8. 2022 05:00 99 14
11. 8. 2022 04:00 98 15
11. 8. 2022 03:00 99 14
11. 8. 2022 02:00 99 15
11. 8. 2022 01:00 99 14
11. 8. 2022 00:00 99 14
10. 8. 2022 23:00 98 14
10. 8. 2022 22:00 99 14
10. 8. 2022 21:00 98 14

H - water level, Q - discharge
more information


Morava

Strážnice

Date and time (UTC) H (cm) Q (m³/s)
11. 8. 2022 09:20 81 8.6
11. 8. 2022 09:00 81 9
11. 8. 2022 08:00 82 9
11. 8. 2022 07:00 82 9
11. 8. 2022 06:00 82 9
11. 8. 2022 05:00 82 9
11. 8. 2022 04:00 83 9
11. 8. 2022 03:00 83 9
11. 8. 2022 02:00 83 9
11. 8. 2022 01:00 84 9
11. 8. 2022 00:00 84 9
10. 8. 2022 23:00 84 9
10. 8. 2022 22:00 84 9
10. 8. 2022 21:00 85 9

H - water level, Q - discharge
more information

Kroměříž

Date and time (UTC) H (cm) Q (m³/s)
11. 8. 2022 09:20 117 8.6
11. 8. 2022 09:00 116 8
11. 8. 2022 08:00 116 8
11. 8. 2022 07:00 117 9
11. 8. 2022 06:00 116 8
11. 8. 2022 05:00 117 9
11. 8. 2022 04:00 116 8
11. 8. 2022 03:00 117 9
11. 8. 2022 02:00 116 8
11. 8. 2022 01:00 117 9
11. 8. 2022 00:00 116 8
10. 8. 2022 23:00 117 9
10. 8. 2022 22:00 116 8
10. 8. 2022 21:00 117 9

H - water level, Q - discharge
more information
Source data
Labe Basin Vltava Basin Povodí Moravy ČHMÚ